Regional Weather Roundup
Issued by NWS

Home | Current Version | Previous Version | Text Only | Print | Product List | Glossary Off
Versions: 1 2 3 4 5 6 7 8 9 10 11 12 13 14 15 16 17 18 19 20 21 22 23 24 25 26 27 28 29 30 31 32 33 34 35 36 37 38 39 40 41 42 43 44 45 46 47 48 49 50

000
ASUS43 KLOT 230803
RWRIL

ILLINOIS REGIONAL WEATHER ROUNDUP
NATIONAL WEATHER SERVICE CHICAGO/ROMEOVILLE IL
300 AM CDT WED MAY 23 2018

NOTE: "FAIR" INDICATES FEW OR NO CLOUDS BELOW 12,000 FEET WITH NO
SIGNIFICANT WEATHER AND/OR OBSTRUCTIONS TO VISIBILITY.

* THESE STATIONS ARE NOT UNDER NWS QUALITY CONTROL. THEY ALSO MAY NOT
  REPORT WEATHER SUCH AS PRECIPITATION OR FOG.

ILZ001-002-007-009-015-016-024-230900-
NORTHWEST ILLINOIS

CITY           SKY/WX    TMP DP  RH WIND       PRES   REMARKS
MOLINE         FAIR      59  58  96 E5        30.09S
STERLING*      FAIR      57  57 100 CALM      30.11S FOG
$$

ILZ003-004-008-010-011-017-018-230900-
NORTH CENTRAL ILLINOIS

CITY           SKY/WX    TMP DP  RH WIND       PRES   REMARKS
ROCKFORD       FAIR      53  52  96 CALM      30.13R
FREEPORT*      FAIR      52  52 100 CALM      30.14R FOG
ROCHELLE*      FOG       54  54 100 CALM      30.12R VSB 1/2
DE KALB*         N/A     55  55 100 CALM      30.12R FOG
$$

ILZ005-006-012>014-019>023-230900-
NORTHEAST ILLINOIS

CITY           SKY/WX    TMP DP  RH WIND       PRES   REMARKS
CHICAGO-OHARE  FAIR      53  50  89 CALM      30.10S
CHICAGO-MIDWAY FAIR      53  50  89 CALM      30.11S
AURORA         FAIR      54  54 100 CALM      30.11R FOG
LANSING*       FAIR      49  49 100 CALM      30.12S FOG
JOLIET*          N/A     53  53 100 CALM      30.11F FOG
WAUKEGAN       FAIR      49  48  97 CALM      30.10S FOG
DUPAGE AIRPORT FAIR      52  52 100 CALM      30.10S FOG
KANKAKEE*      FAIR      53  52  97 CALM      30.13S FOG
WHEELING       FAIR      54  51  90 CALM      30.12S
MORRIS*          N/A     54  53  96 CALM      30.11R FOG
NORTHERLY ISL    N/A     53  50  89 W2          N/A
$$

LMZ740>746-230900-
SOUTHERN LAKE MICHIGAN

STATION/POSITION SKY/WX   TEMP    WIND        PRES    VSBY  WAVE
                          AIR SEA DIR/SP/G                  HT/PER
                          (F)     (DEG/KT/KT) (MB)    (MI)  (FT/S)
SOUTHERN BUOY              42 39  220/  6/  8 1020.3S         0
WILMETTE HARBOR            50 48  180/  4/  4   N/A           0
HARRISON CRIB              55     180/  2/  3   N/A
BURNHAM HARBOR             53      CALM  /  6   N/A
CALUMET HARBOR             52     210/  1/  2 1019.2
BURNS HARBOR               51        CALM     1020.3R
MICHIGAN CITY              49      CALM  /  1   N/A
MICHIGAN CITY 6N           49 55   CALM  /  2   N/A           1
ST. JOSEPH                 49 53  260/  6/  6 1020.8R         1
$$

ILZ025>027-034>036-040-047-049-050-058-095>099-230900-
WEST-CENTRAL ILLINOIS

CITY           SKY/WX    TMP DP  RH WIND       PRES   REMARKS
QUINCY         CLEAR     67  60  78 E9        30.08R
GALESBURG*     FAIR      62  59  90 E5        30.11R
MACOMB*        CLEAR     60  58  96 E5        30.11S
JACKSONVILLE*  CLEAR     62  59  91 E7        30.09S
PITTSFIELD*    CLEAR     64  62  93 E3        30.10S
$$

ILZ028>032-037-038-041>044-048-051>054-059>061-230900-
CENTRAL ILLINOIS

CITY           SKY/WX    TMP DP  RH WIND       PRES   REMARKS
BLOOMINGTON    FAIR      57  54  89 E6        30.13R
DECATUR        FAIR      59  55  87 CALM      30.11R
PEORIA         FAIR      62  60  93 E7        30.10S
LACON*         FAIR      59  58  96 E7        30.10S FOG
LINCOLN*       FAIR      61  59  92 E3        30.10S
SPRINGFIELD    FAIR      64  59  83 E3        30.10R
TAYLORVILLE    NOT AVBL
$$

ILZ033-039-045-046-055>057-062-063-230900-
EAST-CENTRAL ILLINOIS

CITY           SKY/WX    TMP DP  RH WIND       PRES   REMARKS
CHAMPAIGN      FAIR      60  57  89 NE6       30.10S
DANVILLE*      FAIR      56  56 100 N6        30.08F FOG
RANTOUL*       FAIR      60  58  92 NE5       30.11S
MATTOON        FAIR      62  59  90 CALM      30.08S
$$

ILZ079-100>102-230900-
SOUTHWEST ILLINOIS

CITY           SKY/WX    TMP DP  RH WIND       PRES   REMARKS
BELLEVILLE     CLEAR     68  61  77 NE5       30.07R
CAHOKIA*       CLEAR     67  61  81 CALM      30.07R
SPARTA*        CLOUDY    67  65  91 NE6       30.08R
$$

ILZ064>066-069>071-074>076-080>082-084>086-088>090-092>094-230900-
SOUTH-CENTRAL ILLINOIS

CITY           SKY/WX    TMP DP  RH WIND       PRES   REMARKS
CARBONDALE     FAIR      65  64  97 CALM      30.05S
CAIRO*         FAIR      69  69 100 CALM      30.04S FOG
EFFINGHAM*     FAIR      65  60  83 CALM      30.09F
MT. VERNON       N/A     67  60  78 N7        30.06S
CENTRALIA*     PTCLDY    69  61  76 CALM      30.07S
SALEM*         FAIR      69  59  69 NE6       30.08S
METROPOLIS*    FAIR      68  67  97 CALM      30.04F
$$

ILZ067-068-072-073-078-083-087-091-230900-
SOUTHEAST ILLINOIS

CITY           SKY/WX    TMP DP  RH WIND       PRES   REMARKS
LAWRENCEVILLE  FAIR      69  60  73 NE8       30.07R
FLORA*         FAIR      67  61  80 N6        30.07S
FAIRFIELD*     FAIR      67  61  80 N6        30.05S
HARRISBURG*    FAIR      66  65  99 CALM      30.05S
ROBINSON*      FAIR      62  60  93 NE3       30.09R
CARMI*         FAIR      67  62  83 N6        30.04S
$$

ABBREVIATIONS USED IN REMARKS
   TC - TEMPERATURE IN CELSIUS
  WCI - WIND CHILL INDEX
   HX - HEAT INDEX
  VSB - VISIBILITY
$$





USA.gov is the U.S. government's official web portal to all federal, state and local government web resources and services.